STARLINK-30974

decayed
NORAD ID: 58479 Int'l Des: 2023-186 Owner: SPXS Country: US Constellation: starlink
LEOCIRCULAR
Gruppe

Über STARLINK-30974

Beschreibung wird geladen...

Höhenverlauf

Altitude vs Time

uPlot chart will show altitude changes over time

Zweizeiliger Elementsatz

1 58479U 23186G 24311.51860466 .09285815 91296-5 45088-2 0 9997
2 58479 42.9845 36.6487 0020002 18.3435 58.5787 16.19653173 54448
Epoch: 6. Nov. 2024 • Age: 7541 hours

Aktueller Status

Position data unavailable
Startdatum 3. Dez. 2023
Alter 1.7 years
Verglühungsdatum 6. Nov. 2024
Typ internet

Technische Details

Klassifizierung Payload
Masse 730.00 kg
Trockenmasse 700.00 kg
Gesamtmasse 730.00 kg
Länge 0.30 m
Durchmesser 4.10 m
Spannweite 29.00 m
Form Box + pan
Hersteller SPXS
Bus-Typ Starlink V2M
Phasenstatus Unknown Transfer Status
Besitzer/Staat SPXS/US

Große Konstellationen

Loading constellations...